| time (UTC) | temp F | wind direction | speed MPH | gust MPH | rain 1hr in | rain 24hr in | rain mn in | humidity % | barometer mb |
| 20260902194715 | 98 | 182 | 5.0 | 13.0 | 0.00 | 0.00 | 0.00 | 31 | 1014.8 |
| 20260902194600 | 98 | 182 | 5.0 | 13.0 | 0.00 | 0.00 | 0.00 | 31 | 1014.8 |
| 20260902193949 | 98 | 154 | 4.0 | 11.0 | 0.00 | 0.00 | 0.00 | 31 | 1014.8 |
| 20260902193451 | 98 | 239 | 4.0 | 11.0 | 0.00 | 0.00 | 0.00 | 31 | 1014.9 |
| 20260902192921 | 97 | 225 | 4.0 | 11.0 | 0.00 | 0.00 | 0.00 | 33 | 1015.0 |
| 20260902192355 | 97 | 242 | 4.0 | 11.0 | 0.00 | 0.00 | 0.00 | 33 | 1015.2 |
| 20260902191831 | 97 | 175 | 4.0 | 11.0 | 0.00 | 0.00 | 0.00 | 34 | 1015.2 |
| 20260902191329 | 97 | 203 | 4.0 | 10.0 | 0.00 | 0.00 | 0.00 | 35 | 1015.3 |
| 20260902191108 | 97 | 188 | 5.0 | 16.0 | 0.00 | 0.00 | 0.00 | 33 | 1015.3 |
| 20260902190936 | 97 | 188 | 5.0 | 16.0 | 0.00 | 0.00 | 0.00 | 33 | 1015.3 |
| 20260902190600 | 98 | 93 | 3.0 | 16.0 | 0.00 | 0.00 | 0.00 | 33 | 1015.4 |
| 20260902190440 | 98 | 93 | 3.0 | 16.0 | 0.00 | 0.00 | 0.00 | 33 | 1015.4 |
| 20260902185934 | 97 | 213 | 3.0 | 13.0 | 0.00 | 0.00 | 0.00 | 34 | 1015.4 |
| 20260902185326 | 97 | 154 | 4.0 | 13.0 | 0.00 | 0.00 | 0.00 | 34 | 1015.3 |
| 20260902184823 | 96 | 186 | 3.0 | 10.0 | 0.00 | 0.00 | 0.00 | 35 | 1015.5 |
| 20260902184521 | 96 | 161 | 3.0 | 11.0 | 0.00 | 0.00 | 0.00 | 35 | 1015.4 |
| 20260902184401 | 96 | 161 | 3.0 | 11.0 | 0.00 | 0.00 | 0.00 | 35 | 1015.4 |
| 20260902183731 | 96 | 196 | 3.0 | 11.0 | 0.00 | 0.00 | 0.00 | 35 | 1015.5 |
| 20260902183239 | 95 | 207 | 3.0 | 10.0 | 0.00 | 0.00 | 0.00 | 36 | 1015.6 |
| 20260902182735 | 95 | 165 | 3.0 | 10.0 | 0.00 | 0.00 | 0.00 | 36 | 1015.6 |
| 20260902182445 | 94 | 188 | 4.0 | 11.0 | 0.00 | 0.00 | 0.00 | 38 | 1015.7 |
| 20260902182325 | 94 | 188 | 4.0 | 11.0 | 0.00 | 0.00 | 0.00 | 38 | 1015.7 |
| 20260902181714 | 93 | 167 | 5.0 | 11.0 | 0.00 | 0.00 | 0.00 | 37 | 1015.8 |
| 20260902181156 | 94 | 219 | 4.0 | 11.0 | 0.00 | 0.00 | 0.00 | 37 | 1015.9 |
| 20260902180903 | 94 | 261 | 3.0 | 11.0 | 0.00 | 0.00 | 0.00 | 38 | 1015.9 |
| 20260902180739 | 94 | 261 | 3.0 | 11.0 | 0.00 | 0.00 | 0.00 | 38 | 1015.9 |
| 20260902180356 | 93 | 214 | 4.0 | 9.0 | 0.00 | 0.00 | 0.00 | 38 | 1016.0 |
| 20260902180242 | 93 | 214 | 4.0 | 9.0 | 0.00 | 0.00 | 0.00 | 38 | 1016.0 |
| 20260902175633 | 93 | 149 | 4.0 | 9.0 | 0.00 | 0.00 | 0.00 | 39 | 1016.1 |
| 20260902175130 | 92 | 177 | 3.0 | 9.0 | 0.00 | 0.00 | 0.00 | 39 | 1016.1 |
| 20260902174600 | 92 | 198 | 3.0 | 10.0 | 0.00 | 0.00 | 0.00 | 42 | 1016.1 |
| 20260902174056 | 91 | 201 | 5.0 | 10.0 | 0.00 | 0.00 | 0.00 | 42 | 1016.3 |
| 20260902173819 | 91 | 145 | 4.0 | 11.0 | 0.00 | 0.00 | 0.00 | 41 | 1016.4 |
| 20260902173702 | 91 | 145 | 4.0 | 11.0 | 0.00 | 0.00 | 0.00 | 41 | 1016.4 |
| 20260902173031 | 91 | 233 | 4.0 | 11.0 | 0.00 | 0.00 | 0.00 | 40 | 1016.4 |
| 20260902172538 | 91 | 196 | 4.0 | 10.0 | 0.00 | 0.00 | 0.00 | 41 | 1016.4 |
| 20260902172026 | 90 | 227 | 3.0 | 9.0 | 0.00 | 0.00 | 0.00 | 41 | 1016.4 |
| 20260902171500 | 90 | 245 | 3.0 | 8.0 | 0.00 | 0.00 | 0.00 | 42 | 1016.3 |
| 20260902170953 | 90 | 177 | 2.0 | 7.0 | 0.00 | 0.00 | 0.00 | 43 | 1016.5 |
| 20260902170503 | 89 | 152 | 2.0 | 7.0 | 0.00 | 0.00 | 0.00 | 44 | 1016.5 |
| 20260902165923 | 88 | 177 | 3.0 | 8.0 | 0.00 | 0.00 | 0.00 | 45 | 1016.5 |
| 20260902165419 | 87 | 190 | 3.0 | 8.0 | 0.00 | 0.00 | 0.00 | 45 | 1016.7 |
| 20260902164855 | 87 | 188 | 4.0 | 7.0 | 0.00 | 0.00 | 0.00 | 47 | 1016.8 |
| 20260902164347 | 87 | 187 | 3.0 | 7.0 | 0.00 | 0.00 | 0.00 | 46 | 1016.9 |
| 20260902164104 | 86 | 197 | 2.0 | 5.0 | 0.00 | 0.00 | 0.00 | 48 | 1016.9 |
| 20260902163947 | 86 | 197 | 2.0 | 5.0 | 0.00 | 0.00 | 0.00 | 48 | 1016.9 |
| 20260902163338 | 85 | 202 | 3.0 | 7.0 | 0.00 | 0.00 | 0.00 | 48 | 1016.8 |
| 20260902162832 | 85 | 202 | 3.0 | 7.0 | 0.00 | 0.00 | 0.00 | 48 | 1016.9 |
| 20260902162307 | 85 | 170 | 3.0 | 8.0 | 0.00 | 0.00 | 0.00 | 49 | 1016.8 |
| 20260902161751 | 85 | 221 | 3.0 | 8.0 | 0.00 | 0.00 | 0.00 | 49 | 1016.8 |
| 20260902161248 | 85 | 225 | 3.0 | 8.0 | 0.00 | 0.00 | 0.00 | 50 | 1016.8 |
| 20260902160743 | 84 | 197 | 3.0 | 8.0 | 0.00 | 0.00 | 0.00 | 50 | 1016.8 |
| 20260902160232 | 83 | 209 | 3.0 | 9.0 | 0.00 | 0.00 | 0.00 | 50 | 1016.8 |
| 20260902155733 | 83 | 198 | 3.0 | 9.0 | 0.00 | 0.00 | 0.00 | 51 | 1016.8 |
| 20260902155554 | 82 | 216 | 3.0 | 8.0 | 0.00 | 0.00 | 0.00 | 53 | 1016.7 |
| 20260902155525 | 81 | 221 | 3.0 | 7.0 | 0.00 | 0.00 | 0.00 | 53 | 1016.7 |
| 20260902155521 | 82 | 216 | 3.0 | 8.0 | 0.00 | 0.00 | 0.00 | 53 | 1016.7 |
| 20260902154807 | 81 | 221 | 3.0 | 7.0 | 0.00 | 0.00 | 0.00 | 53 | 1016.7 |
| 20260902154136 | 80 | 215 | 3.0 | 7.0 | 0.00 | 0.00 | 0.00 | 54 | 1016.7 |
| 20260902153635 | 80 | 215 | 3.0 | 7.0 | 0.00 | 0.00 | 0.00 | 56 | 1016.7 |
| 20260902153117 | 79 | 207 | 3.0 | 8.0 | 0.00 | 0.00 | 0.00 | 56 | 1016.7 |
| 20260902152834 | 79 | 229 | 4.0 | 8.0 | 0.00 | 0.00 | 0.00 | 56 | 1016.7 |
| 20260902152720 | 79 | 229 | 4.0 | 8.0 | 0.00 | 0.00 | 0.00 | 56 | 1016.7 |
| 20260902152052 | 79 | 251 | 4.0 | 8.0 | 0.00 | 0.00 | 0.00 | 56 | 1016.8 |
| 20260902151531 | 78 | 229 | 3.0 | 6.0 | 0.00 | 0.00 | 0.00 | 58 | 1016.7 |
| 20260902151035 | 78 | 0 | 3.0 | 8.0 | 0.00 | 0.00 | 0.00 | 59 | 1016.7 |
| 20260902150530 | 77 | 0 | 3.0 | 8.0 | 0.00 | 0.00 | 0.00 | 59 | 1016.8 |
| 20260902150028 | 77 | 0 | 3.0 | 8.0 | 0.00 | 0.00 | 0.00 | 60 | 1016.8 |
| 20260902145517 | 76 | 0 | 4.0 | 9.0 | 0.00 | 0.00 | 0.00 | 62 | 1016.9 |
| 20260902145012 | 76 | 0 | 4.0 | 9.0 | 0.00 | 0.00 | 0.00 | 62 | 1016.9 |
| 20260902144516 | 75 | 0 | 4.0 | 10.0 | 0.00 | 0.00 | 0.00 | 63 | 1016.9 |
| 20260902144011 | 75 | 0 | 4.0 | 10.0 | 0.00 | 0.00 | 0.00 | 64 | 1016.9 |
| 20260902143459 | 74 | 0 | 4.0 | 13.0 | 0.00 | 0.00 | 0.00 | 64 | 1016.8 |
| 20260902142924 | 74 | 0 | 4.0 | 13.0 | 0.00 | 0.00 | 0.00 | 65 | 1016.9 |
| 20260902142403 | 74 | 0 | 4.0 | 11.0 | 0.00 | 0.00 | 0.00 | 65 | 1016.9 |
| 20260902141853 | 73 | 0 | 4.0 | 11.0 | 0.00 | 0.00 | 0.00 | 67 | 1016.9 |
| 20260902141351 | 73 | 0 | 4.0 | 13.0 | 0.00 | 0.00 | 0.00 | 68 | 1016.9 |
| 20260902140838 | 72 | 0 | 4.0 | 13.0 | 0.00 | 0.00 | 0.00 | 69 | 1017.0 |
| 20260902140313 | 71 | 0 | 4.0 | 9.0 | 0.00 | 0.00 | 0.00 | 71 | 1017.0 |
| 20260902135758 | 70 | 0 | 2.0 | 9.0 | 0.00 | 0.00 | 0.00 | 72 | 1017.0 |
| 20260902135239 | 70 | 0 | 2.0 | 8.0 | 0.00 | 0.00 | 0.00 | 75 | 1017.1 |
| 20260902134738 | 69 | 0 | 2.0 | 8.0 | 0.00 | 0.00 | 0.00 | 76 | 1017.0 |
| 20260902134236 | 68 | 0 | 2.0 | 5.0 | 0.00 | 0.00 | 0.00 | 77 | 1016.9 |
| 20260902133712 | 68 | 0 | 2.0 | 5.0 | 0.00 | 0.00 | 0.00 | 78 | 1016.9 |
| 20260902133146 | 67 | 0 | 2.0 | 5.0 | 0.00 | 0.00 | 0.00 | 79 | 1016.9 |
| 20260902132913 | 67 | 0 | 1.0 | 4.0 | 0.00 | 0.00 | 0.00 | 79 | 1016.9 |
| 20260902132753 | 67 | 0 | 1.0 | 4.0 | 0.00 | 0.00 | 0.00 | 79 | 1016.9 |
| 20260902132121 | 66 | 0 | 1.0 | 5.0 | 0.00 | 0.00 | 0.00 | 80 | 1016.9 |
| 20260902131625 | 66 | 0 | 1.0 | 5.0 | 0.00 | 0.00 | 0.00 | 80 | 1017.0 |
| 20260902131119 | 66 | 0 | 0.0 | 4.0 | 0.00 | 0.00 | 0.00 | 80 | 1017.0 |
| 20260902130838 | 65 | 0 | 1.0 | 4.0 | 0.00 | 0.00 | 0.00 | 80 | 1017.0 |
| 20260902130725 | 65 | 0 | 1.0 | 4.0 | 0.00 | 0.00 | 0.00 | 80 | 1017.0 |
| 20260902130109 | 65 | 0 | 1.0 | 4.0 | 0.00 | 0.00 | 0.00 | 80 | 1017.0 |
| 20260902125612 | 65 | 0 | 1.0 | 4.0 | 0.00 | 0.00 | 0.00 | 80 | 1016.9 |
| 20260902125053 | 65 | 0 | 1.0 | 4.0 | 0.00 | 0.00 | 0.00 | 80 | 1017.0 |
| 20260902124544 | 65 | 0 | 1.0 | 4.0 | 0.00 | 0.00 | 0.00 | 80 | 1016.9 |
| 20260902124019 | 65 | 0 | 1.0 | 4.0 | 0.00 | 0.00 | 0.00 | 80 | 1016.9 |
| 20260902123732 | 65 | 0 | 1.0 | 4.0 | 0.00 | 0.00 | 0.00 | 80 | 1016.9 |
| 20260902123600 | 65 | 0 | 1.0 | 4.0 | 0.00 | 0.00 | 0.00 | 80 | 1016.9 |
| 20260902122938 | 65 | 0 | 1.0 | 4.0 | 0.00 | 0.00 | 0.00 | 80 | 1016.8 |
| 20260902122412 | 65 | 0 | 1.0 | 3.0 | 0.00 | 0.00 | 0.00 | 80 | 1016.8 |
| 20260902122117 | 65 | 0 | 1.0 | 3.0 | 0.00 | 0.00 | 0.00 | 80 | 1016.6 |
| 20260902121952 | 65 | 0 | 1.0 | 3.0 | 0.00 | 0.00 | 0.00 | 80 | 1016.6 |
| 20260902121348 | 65 | 0 | 1.0 | 3.0 | 0.00 | 0.00 | 0.00 | 80 | 1016.7 |
| 20260902120856 | 65 | 0 | 0.0 | 3.0 | 0.00 | 0.00 | 0.00 | 79 | 1016.8 |
| 20260902120543 | 65 | 0 | 0.0 | 3.0 | 0.00 | 0.00 | 0.00 | 79 | 1016.8 |
| 20260902120427 | 65 | 0 | 0.0 | 3.0 | 0.00 | 0.00 | 0.00 | 79 | 1016.8 |
| 20260902115758 | 65 | 0 | 1.0 | 4.0 | 0.00 | 0.00 | 0.00 | 79 | 1016.8 |
| 20260902115237 | 65 | 0 | 1.0 | 3.0 | 0.00 | 0.00 | 0.00 | 79 | 1016.8 |
| 20260902114724 | 65 | 0 | 1.0 | 6.0 | 0.00 | 0.00 | 0.00 | 79 | 1016.8 |
| 20260902114213 | 65 | 0 | 1.0 | 6.0 | 0.00 | 0.00 | 0.00 | 78 | 1016.8 |
| 20260902113908 | 65 | 0 | 1.0 | 3.0 | 0.00 | 0.00 | 0.00 | 78 | 1016.8 |
| 20260902113750 | 65 | 0 | 1.0 | 3.0 | 0.00 | 0.00 | 0.00 | 78 | 1016.8 |
| 20260902113121 | 65 | 0 | 1.0 | 4.0 | 0.00 | 0.00 | 0.00 | 78 | 1016.8 |
| 20260902112556 | 65 | 0 | 1.0 | 4.0 | 0.00 | 0.00 | 0.00 | 78 | 1016.7 |
| 20260902112052 | 65 | 0 | 0.0 | 2.0 | 0.00 | 0.00 | 0.00 | 78 | 1016.7 |
| 20260902111550 | 65 | 0 | 0.0 | 2.0 | 0.00 | 0.00 | 0.00 | 77 | 1016.7 |
| 20260902111025 | 65 | 0 | 0.0 | 2.0 | 0.00 | 0.00 | 0.00 | 77 | 1016.7 |
| 20260902110519 | 65 | 0 | 0.0 | 3.0 | 0.00 | 0.00 | 0.00 | 77 | 1016.8 |
| 20260902110015 | 65 | 0 | 0.0 | 3.0 | 0.00 | 0.00 | 0.00 | 76 | 1016.8 |
| 20260902105731 | 65 | 0 | 0.0 | 2.0 | 0.00 | 0.00 | 0.00 | 76 | 1016.9 |
| 20260902105616 | 65 | 0 | 0.0 | 2.0 | 0.00 | 0.00 | 0.00 | 76 | 1016.9 |
| 20260902105408 | 66 | 0 | 0.0 | 3.0 | 0.00 | 0.00 | 0.00 | 76 | 1016.8 |
| 20260902105111 | 66 | 0 | 0.0 | 2.0 | 0.00 | 0.00 | 0.00 | 76 | 1016.8 |
| 20260902104724 | 66 | 0 | 0.0 | 3.0 | 0.00 | 0.00 | 0.00 | 76 | 1016.8 |
| 20260902103924 | 66 | 0 | 1.0 | 4.0 | 0.00 | 0.00 | 0.00 | 76 | 1016.8 |
| 20260902103355 | 66 | 0 | 1.0 | 4.0 | 0.00 | 0.00 | 0.00 | 75 | 1016.8 |
| 20260902103219 | 66 | 0 | 0.0 | 3.0 | 0.00 | 0.00 | 0.00 | 75 | 1016.8 |
| 20260902103146 | 66 | 0 | 0.0 | 3.0 | 0.00 | 0.00 | 0.00 | 75 | 1016.8 |
| 20260902102330 | 66 | 0 | 0.0 | 2.0 | 0.00 | 0.00 | 0.00 | 74 | 1016.9 |
| 20260902101836 | 66 | 0 | 0.0 | 2.0 | 0.00 | 0.00 | 0.00 | 74 | 1017.0 |
| 20260902101323 | 67 | 0 | 0.0 | 1.0 | 0.00 | 0.00 | 0.00 | 74 | 1016.9 |
| 20260902100800 | 67 | 0 | 0.0 | 1.0 | 0.00 | 0.00 | 0.00 | 73 | 1016.9 |
| 20260902100253 | 67 | 0 | 0.0 | 2.0 | 0.00 | 0.00 | 0.00 | 73 | 1017.0 |
| 20260902095742 | 67 | 0 | 1.0 | 4.0 | 0.00 | 0.00 | 0.00 | 73 | 1017.0 |
| 20260902095240 | 67 | 0 | 1.0 | 4.0 | 0.00 | 0.00 | 0.00 | 72 | 1017.1 |
| 20260902094931 | 67 | 0 | 0.0 | 2.0 | 0.00 | 0.00 | 0.00 | 72 | 1017.1 |
| 20260902094819 | 67 | 0 | 0.0 | 2.0 | 0.00 | 0.00 | 0.00 | 72 | 1017.1 |
| 20260902094216 | 68 | 0 | 0.0 | 2.0 | 0.00 | 0.00 | 0.00 | 72 | 1017.1 |
| 20260902094156 | 68 | 0 | 0.0 | 2.0 | 0.00 | 0.00 | 0.00 | 72 | 1017.2 |
| 20260902093758 | 68 | 0 | 0.0 | 2.0 | 0.00 | 0.00 | 0.00 | 72 | 1017.1 |
| 20260902093113 | 68 | 0 | 0.0 | 3.0 | 0.00 | 0.00 | 0.00 | 72 | 1017.2 |
| 20260902092611 | 68 | 0 | 0.0 | 3.0 | 0.00 | 0.00 | 0.00 | 72 | 1017.1 |
| 20260902092106 | 68 | 0 | 1.0 | 3.0 | 0.00 | 0.00 | 0.00 | 72 | 1017.1 |
| 20260902091602 | 68 | 0 | 1.0 | 3.0 | 0.00 | 0.00 | 0.00 | 72 | 1017.2 |
| 20260902091056 | 68 | 0 | 1.0 | 3.0 | 0.00 | 0.00 | 0.00 | 72 | 1017.1 |
| 20260902090528 | 68 | 0 | 1.0 | 3.0 | 0.00 | 0.00 | 0.00 | 72 | 1017.4 |
| 20260902090244 | 68 | 0 | 1.0 | 4.0 | 0.00 | 0.00 | 0.00 | 72 | 1017.4 |
| 20260902090110 | 68 | 0 | 1.0 | 4.0 | 0.00 | 0.00 | 0.00 | 72 | 1017.4 |
| 20260902085456 | 68 | 0 | 1.0 | 2.0 | 0.00 | 0.00 | 0.00 | 72 | 1017.2 |
| 20260902084958 | 68 | 0 | 0.0 | 2.0 | 0.00 | 0.00 | 0.00 | 73 | 1017.2 |
| 20260902084432 | 68 | 0 | 0.0 | 2.0 | 0.00 | 0.00 | 0.00 | 73 | 1017.4 |
| 20260902083902 | 68 | 0 | 1.0 | 4.0 | 0.00 | 0.00 | 0.00 | 73 | 1017.2 |
| 20260902083641 | 68 | 0 | 1.0 | 5.0 | 0.00 | 0.00 | 0.00 | 72 | 1017.4 |
| 20260902083335 | 68 | 0 | 1.0 | 5.0 | 0.00 | 0.00 | 0.00 | 72 | 1017.2 |
| 20260902083121 | 68 | 0 | 1.0 | 5.0 | 0.00 | 0.00 | 0.00 | 72 | 1017.4 |
| 20260902082816 | 68 | 0 | 1.0 | 4.0 | 0.00 | 0.00 | 0.00 | 73 | 1017.4 |
| 20260902082430 | 68 | 0 | 1.0 | 4.0 | 0.00 | 0.00 | 0.00 | 73 | 1017.4 |
| 20260902081758 | 68 | 0 | 1.0 | 5.0 | 0.00 | 0.00 | 0.00 | 72 | 1017.4 |
| 20260902081230 | 68 | 0 | 1.0 | 5.0 | 0.00 | 0.00 | 0.00 | 72 | 1017.5 |
| 20260902080704 | 69 | 0 | 1.0 | 4.0 | 0.00 | 0.00 | 0.00 | 72 | 1017.6 |
| 20260902080200 | 69 | 0 | 1.0 | 4.0 | 0.00 | 0.00 | 0.00 | 71 | 1017.5 |
| 20260902080013 | 69 | 0 | 1.0 | 3.0 | 0.00 | 0.00 | 0.00 | 70 | 1017.5 |
| 20260902075932 | 69 | 0 | 1.0 | 3.0 | 0.00 | 0.00 | 0.00 | 70 | 1017.5 |
| 20260902075114 | 69 | 0 | 1.0 | 5.0 | 0.00 | 0.00 | 0.00 | 70 | 1017.6 |
| 20260902074548 | 69 | 0 | 1.0 | 5.0 | 0.00 | 0.00 | 0.00 | 69 | 1017.7 |
| 20260902074024 | 69 | 0 | 1.0 | 5.0 | 0.00 | 0.00 | 0.00 | 68 | 1017.6 |
| 20260902073518 | 69 | 0 | 2.0 | 6.0 | 0.00 | 0.00 | 0.00 | 68 | 1017.6 |
| 20260902072959 | 70 | 0 | 3.0 | 6.0 | 0.00 | 0.00 | 0.00 | 67 | 1017.6 |
| 20260902072448 | 70 | 0 | 2.0 | 5.0 | 0.00 | 0.00 | 0.00 | 67 | 1017.5 |
| 20260902071958 | 70 | 0 | 1.0 | 4.0 | 0.00 | 0.00 | 0.00 | 67 | 1017.4 |
| 20260902071722 | 70 | 0 | 1.0 | 5.0 | 0.00 | 0.00 | 0.00 | 66 | 1017.4 |
| 20260902071557 | 70 | 0 | 1.0 | 5.0 | 0.00 | 0.00 | 0.00 | 66 | 1017.4 |
| 20260902070943 | 70 | 0 | 1.0 | 5.0 | 0.00 | 0.00 | 0.00 | 66 | 1017.2 |
| 20260902070432 | 70 | 0 | 1.0 | 4.0 | 0.00 | 0.00 | 0.00 | 65 | 1017.4 |
| 20260902065920 | 71 | 0 | 0.0 | 3.0 | 0.00 | 0.00 | 0.00 | 65 | 1017.4 |
| 20260902065707 | 71 | 0 | 1.0 | 3.0 | 0.00 | 0.00 | 0.00 | 64 | 1017.2 |
| 20260902065636 | 71 | 0 | 1.0 | 3.0 | 0.00 | 0.00 | 0.00 | 64 | 1017.2 |
| 20260902064841 | 71 | 0 | 1.0 | 5.0 | 0.00 | 0.00 | 0.00 | 64 | 1017.2 |
| 20260902064316 | 71 | 0 | 1.0 | 5.0 | 0.00 | 0.00 | 0.00 | 64 | 1017.2 |
| 20260902063750 | 71 | 240 | 1.0 | 2.0 | 0.00 | 0.00 | 0.00 | 63 | 1017.2 |
| 20260902063452 | 71 | 240 | 0.0 | 2.0 | 0.00 | 0.00 | 0.00 | 63 | 1017.1 |
| 20260902063328 | 71 | 240 | 0.0 | 2.0 | 0.00 | 0.00 | 0.00 | 63 | 1017.1 |
| 20260902062659 | 72 | 240 | 0.0 | 3.0 | 0.00 | 0.00 | 0.00 | 63 | 1017.2 |
| 20260902062145 | 72 | 240 | 1.0 | 3.0 | 0.00 | 0.00 | 0.00 | 63 | 1017.0 |
| 20260902061618 | 72 | 240 | 1.0 | 2.0 | 0.00 | 0.00 | 0.00 | 62 | 1017.0 |
| 20260902061102 | 72 | 240 | 0.0 | 2.0 | 0.00 | 0.00 | 0.00 | 62 | 1017.0 |
| 20260902060544 | 72 | 240 | 0.0 | 3.0 | 0.00 | 0.00 | 0.00 | 61 | 1017.1 |
| 20260902060030 | 73 | 240 | 1.0 | 4.0 | 0.00 | 0.00 | 0.00 | 61 | 1017.0 |
| 20260902055502 | 73 | 240 | 1.0 | 4.0 | 0.00 | 0.00 | 0.00 | 61 | 1017.0 |
| 20260902054949 | 73 | 240 | 2.0 | 5.0 | 0.00 | 0.00 | 0.00 | 61 | 1017.0 |
| 20260902054447 | 73 | 240 | 2.0 | 5.0 | 0.00 | 0.00 | 0.00 | 60 | 1017.0 |
| 20260902054323 | 73 | 240 | 2.0 | 5.0 | 0.00 | 0.00 | 0.00 | 60 | 1017.1 |
| 20260902054236 | 73 | 240 | 2.0 | 5.0 | 0.00 | 0.00 | 0.00 | 60 | 1017.1 |
| 20260902053504 | 74 | 240 | 2.0 | 5.0 | 0.00 | 0.00 | 0.00 | 59 | 1017.1 |
| 20260902052941 | 74 | 238 | 2.0 | 4.0 | 0.00 | 0.00 | 0.00 | 58 | 1017.2 |
| 20260902052444 | 74 | 239 | 2.0 | 4.0 | 0.00 | 0.00 | 0.00 | 58 | 1017.4 |
| 20260902051937 | 75 | 239 | 2.0 | 4.0 | 0.00 | 0.00 | 0.00 | 57 | 1017.5 |
| 20260902051441 | 75 | 239 | 2.0 | 4.0 | 0.00 | 0.00 | 0.00 | 57 | 1017.4 |
| 20260902050917 | 75 | 239 | 2.0 | 4.0 | 0.00 | 0.00 | 0.00 | 56 | 1017.5 |
| 20260902050639 | 76 | 239 | 1.0 | 4.0 | 0.00 | 0.00 | 0.00 | 55 | 1017.4 |
| 20260902050518 | 76 | 239 | 1.0 | 4.0 | 0.00 | 0.00 | 0.00 | 55 | 1017.4 |
| 20260902050142 | 76 | 239 | 1.0 | 2.0 | 0.00 | 0.00 | 0.00 | 55 | 1017.2 |
| 20260902050022 | 76 | 239 | 1.0 | 2.0 | 0.00 | 0.00 | 0.00 | 55 | 1017.2 |
| 20260902045412 | 76 | 239 | 1.0 | 8.0 | 0.00 | 0.00 | 0.00 | 54 | 1017.4 |
| 20260902044848 | 76 | 239 | 2.0 | 8.0 | 0.00 | 0.00 | 0.00 | 54 | 1017.2 |
| 20260902044344 | 76 | 244 | 3.0 | 8.0 | 0.00 | 0.00 | 0.00 | 54 | 1017.1 |
| 20260902044331 | 76 | 240 | 3.0 | 8.0 | 0.00 | 0.00 | 0.00 | 54 | 1017.1 |
| 20260902044254 | 76 | 244 | 3.0 | 8.0 | 0.00 | 0.00 | 0.00 | 54 | 1017.1 |
| 20260902043323 | 76 | 256 | 2.0 | 6.0 | 0.00 | 0.00 | 0.00 | 55 | 1017.1 |
| 20260902042807 | 76 | 256 | 2.0 | 3.0 | 0.00 | 0.00 | 0.00 | 56 | 1017.1 |
| 20260902042245 | 76 | 255 | 1.0 | 3.0 | 0.00 | 0.00 | 0.00 | 56 | 1017.1 |
| 20260902041748 | 77 | 255 | 0.0 | 2.0 | 0.00 | 0.00 | 0.00 | 57 | 1017.1 |
| 20260902041214 | 77 | 256 | 0.0 | 1.0 | 0.00 | 0.00 | 0.00 | 58 | 1017.0 |
| 20260902040713 | 78 | 255 | 0.0 | 0.0 | 0.00 | 0.00 | 0.00 | 57 | 1017.1 |
| 20260902040212 | 78 | 256 | 0.0 | 0.0 | 0.00 | 0.00 | 0.00 | 58 | 1017.1 |
| 20260902035645 | 78 | 256 | 0.0 | 1.0 | 0.00 | 0.00 | 0.00 | 57 | 1017.0 |
| 20260902035141 | 78 | 255 | 0.0 | 2.0 | 0.00 | 0.00 | 0.00 | 57 | 1016.9 |
| 20260902034639 | 78 | 256 | 1.0 | 3.0 | 0.00 | 0.00 | 0.00 | 56 | 1016.9 |
| 20260902034137 | 79 | 256 | 2.0 | 5.0 | 0.00 | 0.00 | 0.00 | 56 | 1017.0 |
| 20260902033610 | 79 | 255 | 3.0 | 4.0 | 0.00 | 0.00 | 0.00 | 54 | 1017.1 |
| 20260902033045 | 79 | 254 | 3.0 | 9.0 | 0.00 | 0.00 | 0.00 | 54 | 1017.4 |
| 20260902032538 | 79 | 254 | 4.0 | 8.0 | 0.00 | 0.00 | 0.00 | 54 | 1017.4 |
| 20260902032033 | 79 | 247 | 5.0 | 12.0 | 0.00 | 0.00 | 0.00 | 54 | 1017.5 |
| 20260902031532 | 79 | 246 | 4.0 | 10.0 | 0.00 | 0.00 | 0.00 | 55 | 1017.5 |
| 20260902031233 | 79 | 276 | 4.0 | 8.0 | 0.00 | 0.00 | 0.00 | 56 | 1017.6 |
| 20260902031107 | 79 | 276 | 4.0 | 8.0 | 0.00 | 0.00 | 0.00 | 56 | 1017.6 |
| 20260902030504 | 80 | 265 | 4.0 | 7.0 | 0.00 | 0.00 | 0.00 | 55 | 1017.7 |
| 20260902030236 | 80 | 256 | 3.0 | 7.0 | 0.00 | 0.00 | 0.00 | 55 | 1017.6 |
| 20260902030106 | 80 | 256 | 3.0 | 7.0 | 0.00 | 0.00 | 0.00 | 55 | 1017.6 |
| 20260902025439 | 80 | 254 | 4.0 | 8.0 | 0.00 | 0.00 | 0.00 | 54 | 1017.5 |
| 20260902024934 | 80 | 251 | 4.0 | 9.0 | 0.00 | 0.00 | 0.00 | 53 | 1017.5 |
| 20260902024430 | 81 | 242 | 4.0 | 9.0 | 0.00 | 0.00 | 0.00 | 53 | 1017.4 |
| 20260902023908 | 81 | 234 | 3.0 | 8.0 | 0.00 | 0.00 | 0.00 | 52 | 1017.2 |
| 20260902023357 | 82 | 0 | 4.0 | 9.0 | 0.00 | 0.00 | 0.00 | 51 | 1017.2 |
| 20260902022834 | 82 | 0 | 6.0 | 14.0 | 0.00 | 0.00 | 0.00 | 50 | 1017.2 |
| 20260902022337 | 83 | 0 | 6.0 | 14.0 | 0.00 | 0.00 | 0.00 | 49 | 1017.1 |
| 20260902021832 | 83 | 0 | 8.0 | 18.0 | 0.00 | 0.00 | 0.00 | 47 | 1017.0 |
| 20260902021437 | 85 | 0 | 9.0 | 17.0 | 0.00 | 0.00 | 0.00 | 43 | 1016.9 |
| 20260902021338 | 84 | 0 | 10.0 | 18.0 | 0.00 | 0.00 | 0.00 | 46 | 1016.9 |
| 20260902021124 | 85 | 0 | 9.0 | 17.0 | 0.00 | 0.00 | 0.00 | 43 | 1016.9 |
| 20260902020256 | 85 | 0 | 6.0 | 13.0 | 0.00 | 0.00 | 0.00 | 41 | 1016.8 |
| 20260902015754 | 86 | 0 | 5.0 | 13.0 | 0.00 | 0.00 | 0.00 | 41 | 1016.7 |
| 20260902015301 | 87 | 0 | 4.0 | 13.0 | 0.00 | 0.00 | 0.00 | 40 | 1016.5 |
| 20260902014756 | 87 | 0 | 2.0 | 11.0 | 0.00 | 0.00 | 0.00 | 39 | 1016.0 |
| 20260902014230 | 87 | 0 | 1.0 | 6.0 | 0.00 | 0.00 | 0.00 | 37 | 1015.8 |
| 20260902013702 | 88 | 0 | 0.0 | 2.0 | 0.00 | 0.00 | 0.00 | 37 | 1015.8 |
| 20260902013136 | 88 | 0 | 0.0 | 2.0 | 0.00 | 0.00 | 0.00 | 36 | 1015.7 |
| 20260902012608 | 89 | 0 | 0.0 | 2.0 | 0.00 | 0.00 | 0.00 | 36 | 1015.6 |
| 20260902012105 | 89 | 0 | 0.0 | 2.0 | 0.00 | 0.00 | 0.00 | 35 | 1015.5 |
| 20260902011538 | 89 | 0 | 1.0 | 4.0 | 0.00 | 0.00 | 0.00 | 35 | 1015.5 |
| 20260902011024 | 90 | 144 | 1.0 | 4.0 | 0.00 | 0.00 | 0.00 | 34 | 1015.4 |
| 20260902010741 | 90 | 146 | 1.0 | 3.0 | 0.00 | 0.00 | 0.00 | 33 | 1015.4 |
| 20260902010622 | 90 | 146 | 1.0 | 3.0 | 0.00 | 0.00 | 0.00 | 33 | 1015.4 |
| 20260902010012 | 91 | 146 | 1.0 | 5.0 | 0.00 | 0.00 | 0.00 | 33 | 1015.5 |
| 20260902005736 | 91 | 146 | 1.0 | 5.0 | 0.00 | 0.00 | 0.00 | 32 | 1015.5 |
| 20260902005625 | 91 | 146 | 1.0 | 5.0 | 0.00 | 0.00 | 0.00 | 32 | 1015.5 |
| 20260902005245 | 92 | 150 | 1.0 | 6.0 | 0.00 | 0.00 | 0.00 | 32 | 1015.6 |
| 20260902004439 | 92 | 153 | 1.0 | 6.0 | 0.00 | 0.00 | 0.00 | 31 | 1015.6 |
| 20260902003915 | 93 | 152 | 1.0 | 5.0 | 0.00 | 0.00 | 0.00 | 31 | 1015.7 |
| 20260902003351 | 93 | 153 | 1.0 | 5.0 | 0.00 | 0.00 | 0.00 | 30 | 1015.8 |
| 20260902002824 | 93 | 153 | 1.0 | 5.0 | 0.00 | 0.00 | 0.00 | 30 | 1015.8 |
| 20260902002327 | 94 | 157 | 1.0 | 6.0 | 0.00 | 0.00 | 0.00 | 29 | 1015.8 |
| 20260902001752 | 94 | 157 | 1.0 | 6.0 | 0.00 | 0.00 | 0.00 | 28 | 1015.8 |
| 20260902001226 | 94 | 168 | 1.0 | 4.0 | 0.00 | 0.00 | 0.00 | 28 | 1015.8 |
| 20260902000700 | 95 | 174 | 1.0 | 6.0 | 0.00 | 0.00 | 0.00 | 28 | 1015.8 |
| 20260902000131 | 95 | 192 | 1.0 | 7.0 | 0.00 | 0.00 | 0.00 | 28 | 1015.9 |
| 20260901235632 | 95 | 125 | 1.0 | 7.0 | 0.00 | 0.00 | 0.00 | 27 | 1015.9 |
| 20260901235343 | 95 | 184 | 2.0 | 8.0 | 0.00 | 0.00 | 0.00 | 27 | 1015.9 |
| 20260901235232 | 95 | 184 | 2.0 | 8.0 | 0.00 | 0.00 | 0.00 | 27 | 1015.9 |
| 20260901234600 | 95 | 169 | 2.0 | 8.0 | 0.00 | 0.00 | 0.00 | 27 | 1015.8 |
| 20260901234101 | 96 | 174 | 2.0 | 8.0 | 0.00 | 0.00 | 0.00 | 27 | 1015.9 |
| 20260901233553 | 96 | 136 | 2.0 | 8.0 | 0.00 | 0.00 | 0.00 | 26 | 1015.9 |
| 20260901233055 | 96 | 214 | 2.0 | 9.0 | 0.00 | 0.00 | 0.00 | 26 | 1015.9 |
| 20260901232537 | 96 | 171 | 1.0 | 9.0 | 0.00 | 0.00 | 0.00 | 27 | 1015.9 |
| 20260901232038 | 96 | 209 | 3.0 | 9.0 | 0.00 | 0.00 | 0.00 | 27 | 1016.0 |
| 20260901231513 | 96 | 171 | 3.0 | 10.0 | 0.00 | 0.00 | 0.00 | 27 | 1016.0 |
| 20260901231012 | 95 | 247 | 4.0 | 11.0 | 0.00 | 0.00 | 0.00 | 27 | 1016.1 |
| 20260901230442 | 95 | 248 | 4.0 | 11.0 | 0.00 | 0.00 | 0.00 | 27 | 1016.3 |
| 20260901230148 | 95 | 207 | 4.0 | 16.0 | 0.00 | 0.00 | 0.00 | 27 | 1016.3 |
| 20260901230019 | 95 | 207 | 4.0 | 16.0 | 0.00 | 0.00 | 0.00 | 27 | 1016.3 |
| 20260901225411 | 95 | 180 | 4.0 | 15.0 | 0.00 | 0.00 | 0.00 | 27 | 1016.1 |
| 20260901225141 | 95 | 206 | 4.0 | 15.0 | 0.00 | 0.00 | 0.00 | 27 | 1016.3 |
| 20260901225010 | 95 | 206 | 4.0 | 15.0 | 0.00 | 0.00 | 0.00 | 27 | 1016.3 |
| 20260901224354 | 95 | 221 | 4.0 | 10.0 | 0.00 | 0.00 | 0.00 | 27 | 1016.0 |
| 20260901223850 | 95 | 157 | 3.0 | 11.0 | 0.00 | 0.00 | 0.00 | 27 | 1016.1 |
| 20260901223320 | 95 | 113 | 4.0 | 12.0 | 0.00 | 0.00 | 0.00 | 27 | 1016.1 |
| 20260901222755 | 95 | 180 | 5.0 | 12.0 | 0.00 | 0.00 | 0.00 | 27 | 1016.4 |
| 20260901222452 | 96 | 207 | 6.0 | 17.0 | 0.00 | 0.00 | 0.00 | 27 | 1016.3 |
| 20260901222334 | 96 | 207 | 6.0 | 17.0 | 0.00 | 0.00 | 0.00 | 27 | 1016.3 |
| 20260901221738 | 96 | 243 | 6.0 | 17.0 | 0.00 | 0.00 | 0.00 | 26 | 1016.1 |
| 20260901221158 | 96 | 175 | 5.0 | 14.0 | 0.00 | 0.00 | 0.00 | 26 | 1015.9 |
| 20260901220915 | 96 | 208 | 4.0 | 14.0 | 0.00 | 0.00 | 0.00 | 27 | 1015.8 |
| 20260901220752 | 96 | 208 | 4.0 | 14.0 | 0.00 | 0.00 | 0.00 | 27 | 1015.8 |
| 20260901220132 | 97 | 157 | 4.0 | 10.0 | 0.00 | 0.00 | 0.00 | 26 | 1015.9 |
| 20260901215609 | 97 | 123 | 3.0 | 15.0 | 0.00 | 0.00 | 0.00 | 25 | 1016.0 |
| 20260901215105 | 97 | 167 | 5.0 | 15.0 | 0.00 | 0.00 | 0.00 | 26 | 1016.0 |
| 20260901214605 | 97 | 155 | 6.0 | 18.0 | 0.00 | 0.00 | 0.00 | 26 | 1016.0 |
| 20260901214103 | 97 | 221 | 5.0 | 18.0 | 0.00 | 0.00 | 0.00 | 26 | 1016.1 |
| 20260901213822 | 97 | 178 | 4.0 | 17.0 | 0.00 | 0.00 | 0.00 | 26 | 1016.0 |
| 20260901213702 | 97 | 178 | 4.0 | 17.0 | 0.00 | 0.00 | 0.00 | 26 | 1016.0 |
| 20260901213032 | 97 | 173 | 5.0 | 22.0 | 0.00 | 0.00 | 0.00 | 26 | 1016.1 |
| 20260901212529 | 97 | 111 | 5.0 | 22.0 | 0.00 | 0.00 | 0.00 | 25 | 1016.1 |
| 20260901212012 | 98 | 161 | 5.0 | 21.0 | 0.00 | 0.00 | 0.00 | 26 | 1016.1 |
| 20260901211516 | 98 | 151 | 5.0 | 14.0 | 0.00 | 0.00 | 0.00 | 26 | 1016.3 |
| 20260901211012 | 97 | 211 | 4.0 | 14.0 | 0.00 | 0.00 | 0.00 | 27 | 1016.3 |
| 20260901210513 | 96 | 225 | 5.0 | 11.0 | 0.00 | 0.00 | 0.00 | 27 | 1016.5 |
| 20260901210012 | 96 | 213 | 5.0 | 17.0 | 0.00 | 0.00 | 0.00 | 27 | 1016.6 |
| 20260901205711 | 97 | 235 | 3.0 | 9.0 | 0.00 | 0.00 | 0.00 | 30 | 1016.6 |
| 20260901205556 | 97 | 235 | 3.0 | 9.0 | 0.00 | 0.00 | 0.00 | 30 | 1016.6 |
| 20260901204949 | 96 | 222 | 3.0 | 7.0 | 0.00 | 0.00 | 0.00 | 31 | 1016.6 |
| 20260901204441 | 96 | 212 | 3.0 | 9.0 | 0.00 | 0.00 | 0.00 | 30 | 1016.8 |
| 20260901204201 | 96 | 220 | 4.0 | 15.0 | 0.00 | 0.00 | 0.00 | 29 | 1016.9 |
| 20260901204045 | 96 | 220 | 4.0 | 15.0 | 0.00 | 0.00 | 0.00 | 29 | 1016.9 |
| 20260901203427 | 96 | 215 | 4.0 | 15.0 | 0.00 | 0.00 | 0.00 | 29 | 1017.1 |
| 20260901203122 | 97 | 204 | 4.0 | 10.0 | 0.00 | 0.00 | 0.00 | 29 | 1017.1 |
| 20260901203003 | 97 | 204 | 4.0 | 10.0 | 0.00 | 0.00 | 0.00 | 29 | 1017.1 |
| 20260901202335 | 97 | 201 | 5.0 | 10.0 | 0.00 | 0.00 | 0.00 | 29 | 1017.2 |
| 20260901202036 | 98 | 213 | 4.0 | 10.0 | 0.00 | 0.00 | 0.00 | 30 | 1017.4 |
| 20260901201915 | 98 | 213 | 4.0 | 10.0 | 0.00 | 0.00 | 0.00 | 30 | 1017.4 |
| 20260901201256 | 98 | 223 | 5.0 | 11.0 | 0.00 | 0.00 | 0.00 | 28 | 1017.5 |
| 20260901200800 | 98 | 236 | 4.0 | 11.0 | 0.00 | 0.00 | 0.00 | 28 | 1017.6 |
| 20260901200253 | 98 | 188 | 2.0 | 8.0 | 0.00 | 0.00 | 0.00 | 33 | 1017.5 |
| 20260901195727 | 97 | 224 | 3.0 | 10.0 | 0.00 | 0.00 | 0.00 | 33 | 1017.7 |
| 20260901195217 | 96 | 200 | 4.0 | 14.0 | 0.00 | 0.00 | 0.00 | 33 | 1017.8 |